TimeCDT,TemperatureF,Dew PointF,Humidity,Sea Level PressureIn,VisibilityMPH,Wind Direction,Wind SpeedMPH,Gust SpeedMPH,PrecipitationIn,Events,Conditions,WindDirDegrees,DateUTC
12:15 AM,53.6,32.4,44,29.85,10.0,South,11.5,17.3,N/A,,Clear,180,2014-04-10 05:15:00
12:35 AM,53.6,32.5,45,29.85,10.0,South,12.7,-,N/A,,Clear,180,2014-04-10 05:35:00
12:55 AM,53.6,32.5,45,29.84,10.0,South,12.7,-,N/A,,Clear,180,2014-04-10 05:55:00
1:15 AM,52.7,32.9,47,29.83,10.0,South,10.4,-,N/A,,Clear,180,2014-04-10 06:15:00
1:35 AM,53.1,32.9,46,29.83,10.0,South,11.5,-,N/A,,Clear,180,2014-04-10 06:35:00
1:55 AM,53.4,32.5,45,29.82,10.0,South,12.7,-,N/A,,Clear,180,2014-04-10 06:55:00
2:15 AM,53.1,32.9,46,29.81,10.0,South,12.7,18.4,N/A,,Clear,190,2014-04-10 07:15:00
2:35 AM,52.7,32.9,47,29.80,10.0,South,13.8,-,N/A,,Clear,180,2014-04-10 07:35:00
2:55 AM,52.7,32.9,47,29.79,10.0,South,13.8,-,N/A,,Clear,190,2014-04-10 07:55:00
3:15 AM,52.7,33.1,47,29.78,10.0,South,13.8,-,N/A,,Clear,180,2014-04-10 08:15:00
3:35 AM,53.4,33.1,46,29.77,10.0,South,13.8,-,N/A,,Clear,190,2014-04-10 08:35:00
3:55 AM,53.8,33.3,46,29.77,10.0,South,16.1,20.7,N/A,,Clear,190,2014-04-10 08:55:00
4:15 AM,54.5,33.3,45,29.75,10.0,South,16.1,21.9,N/A,,Clear,190,2014-04-10 09:15:00
4:35 AM,54.7,33.4,45,29.75,10.0,SSW,16.1,23.0,N/A,,Clear,200,2014-04-10 09:35:00
4:55 AM,55.4,33.8,44,29.74,10.0,South,17.3,21.9,N/A,,Clear,190,2014-04-10 09:55:00
5:15 AM,55.6,34.0,44,29.73,10.0,SSW,19.6,-,N/A,,Clear,200,2014-04-10 10:15:00
5:35 AM,56.3,34.2,43,29.73,10.0,SSW,18.4,23.0,N/A,,Clear,200,2014-04-10 10:35:00
5:55 AM,56.5,34.7,44,29.72,10.0,SSW,18.4,26.5,N/A,,Clear,200,2014-04-10 10:55:00
6:15 AM,57.4,35.6,44,29.74,10.0,SSW,16.1,-,N/A,,Scattered Clouds,210,2014-04-10 11:15:00
6:35 AM,57.2,35.8,45,29.73,10.0,SSW,15.0,24.2,N/A,,Scattered Clouds,200,2014-04-10 11:35:00
6:55 AM,57.4,36.3,45,29.76,10.0,SW,15.0,24.2,N/A,,Clear,230,2014-04-10 11:55:00
7:15 AM,57.4,37.2,47,29.76,10.0,SW,12.7,-,N/A,,Clear,220,2014-04-10 12:15:00
7:35 AM,58.6,37.6,46,29.75,10.0,SW,17.3,-,N/A,,Clear,220,2014-04-10 12:35:00
7:55 AM,59.0,38.1,46,29.76,10.0,SSW,15.0,21.9,N/A,,Clear,210,2014-04-10 12:55:00
8:15 AM,60.3,38.8,45,29.76,10.0,SW,12.7,21.9,N/A,,Clear,220,2014-04-10 13:15:00
8:35 AM,61.2,39.0,44,29.75,10.0,SSW,17.3,23.0,N/A,,Clear,210,2014-04-10 13:35:00
8:55 AM,61.7,39.4,44,29.75,10.0,SW,20.7,28.8,N/A,,Clear,220,2014-04-10 13:55:00
9:15 AM,61.5,40.1,45,29.75,10.0,SSW,18.4,23.0,N/A,,Clear,210,2014-04-10 14:15:00
9:35 AM,61.3,40.8,47,29.75,10.0,SW,15.0,26.5,N/A,,Clear,230,2014-04-10 14:35:00
9:55 AM,61.3,41.4,48,29.77,10.0,WSW,13.8,-,N/A,,Clear,240,2014-04-10 14:55:00
10:15 AM,61.9,42.1,48,29.77,10.0,WSW,15.0,-,N/A,,Clear,250,2014-04-10 15:15:00
10:35 AM,63.1,42.6,47,29.78,10.0,WSW,17.3,-,N/A,,Clear,250,2014-04-10 15:35:00
10:55 AM,63.0,42.8,48,29.79,10.0,West,19.6,-,N/A,,Clear,270,2014-04-10 15:55:00
11:15 AM,62.8,42.6,48,29.78,10.0,West,15.0,-,N/A,,Clear,270,2014-04-10 16:15:00
11:35 AM,63.1,42.8,47,29.79,10.0,West,15.0,-,N/A,,Clear,280,2014-04-10 16:35:00
11:55 AM,63.7,42.4,46,29.81,10.0,WNW,13.8,17.3,N/A,,Clear,300,2014-04-10 16:55:00
12:15 PM,63.9,42.6,46,29.80,10.0,WNW,9.2,17.3,N/A,,Clear,300,2014-04-10 17:15:00
12:35 PM,63.7,42.8,47,29.81,10.0,WNW,8.1,-,N/A,,Clear,290,2014-04-10 17:35:00
12:55 PM,63.9,42.8,46,29.78,10.0,NNW,8.1,-,N/A,,Clear,330,2014-04-10 17:55:00
1:15 PM,64.4,41.5,43,29.82,10.0,NNW,11.5,-,N/A,,Clear,330,2014-04-10 18:15:00
1:35 PM,63.5,41.7,45,29.83,10.0,NNW,11.5,-,N/A,,Clear,340,2014-04-10 18:35:00
1:55 PM,63.7,40.8,43,29.82,10.0,North,12.7,-,N/A,,Clear,360,2014-04-10 18:55:00
2:15 PM,64.0,39.9,41,29.88,10.0,NW,15.0,18.4,N/A,,Clear,310,2014-04-10 19:15:00
2:35 PM,63.7,38.8,40,29.88,10.0,NNW,9.2,17.3,N/A,,Scattered Clouds,330,2014-04-10 19:35:00
2:55 PM,63.0,36.0,37,29.87,10.0,NNW,17.3,-,N/A,,Scattered Clouds,330,2014-04-10 19:55:00
3:15 PM,63.1,35.8,36,29.87,10.0,NNW,12.7,-,N/A,,Scattered Clouds,330,2014-04-10 20:15:00
3:35 PM,63.0,34.9,35,29.86,10.0,North,11.5,-,N/A,,Scattered Clouds,350,2014-04-10 20:35:00
3:55 PM,64.0,33.4,32,29.90,10.0,WNW,15.0,-,N/A,,Clear,300,2014-04-10 20:55:00
4:15 PM,63.9,30.0,28,29.90,10.0,WNW,12.7,19.6,N/A,,Clear,300,2014-04-10 21:15:00
4:35 PM,63.5,28.9,27,29.90,10.0,NNW,12.7,-,N/A,,Clear,330,2014-04-10 21:35:00
4:55 PM,62.8,29.1,28,29.89,10.0,NNW,10.4,-,N/A,,Clear,340,2014-04-10 21:55:00
5:15 PM,62.6,29.5,29,29.91,10.0,NW,8.1,-,N/A,,Clear,320,2014-04-10 22:15:00
5:35 PM,61.5,32.0,33,29.91,10.0,NW,6.9,-,N/A,,Clear,320,2014-04-10 22:35:00
5:55 PM,60.8,32.0,34,29.91,10.0,NNW,8.1,-,N/A,,Clear,330,2014-04-10 22:55:00
6:15 PM,61.7,30.2,30,29.93,10.0,NW,5.8,-,N/A,,Clear,320,2014-04-10 23:15:00
6:35 PM,62.1,32.0,32,29.93,10.0,WNW,4.6,-,N/A,,Clear,290,2014-04-10 23:35:00
6:55 PM,61.3,30.7,32,29.93,10.0,NNW,8.1,-,N/A,,Clear,330,2014-04-10 23:55:00
7:15 PM,59.5,30.6,33,29.93,10.0,NNW,8.1,-,N/A,,Clear,330,2014-04-11 00:15:00
7:35 PM,54.7,32.0,42,29.92,10.0,NNW,8.1,-,N/A,,Clear,340,2014-04-11 00:35:00
7:55 PM,52.2,32.2,47,29.93,10.0,NNW,8.1,-,N/A,,Clear,340,2014-04-11 00:55:00
8:15 PM,51.6,28.9,42,29.93,10.0,North,10.4,-,N/A,,Clear,350,2014-04-11 01:15:00
8:35 PM,53.4,29.1,39,29.95,10.0,North,10.4,-,N/A,,Clear,360,2014-04-11 01:35:00
8:55 PM,49.8,31.6,50,29.96,10.0,North,8.1,-,N/A,,Clear,350,2014-04-11 01:55:00
9:15 PM,47.1,32.0,56,29.97,10.0,NNW,8.1,-,N/A,,Clear,340,2014-04-11 02:15:00
9:35 PM,47.3,31.1,53,29.98,10.0,NNW,4.6,-,N/A,,Clear,330,2014-04-11 02:35:00
9:55 PM,46.9,31.1,54,29.98,10.0,North,5.8,-,N/A,,Clear,350,2014-04-11 02:55:00
10:15 PM,44.8,31.1,59,29.99,10.0,NNW,8.1,-,N/A,,Clear,340,2014-04-11 03:15:00
10:35 PM,42.8,32.0,66,29.99,10.0,NNW,6.9,-,N/A,,Clear,340,2014-04-11 03:35:00
10:55 PM,42.3,30.7,64,30.00,10.0,NW,3.5,-,N/A,,Clear,320,2014-04-11 03:55:00
11:15 PM,43.2,30.2,60,30.00,10.0,WNW,3.5,-,N/A,,Clear,290,2014-04-11 04:15:00
11:35 PM,38.7,30.6,73,30.01,10.0,South,3.5,-,N/A,,Clear,180,2014-04-11 04:35:00
11:55 PM,39.6,31.8,74,30.02,10.0,Calm,Calm,-,N/A,,Clear,0,2014-04-11 04:55:00